| time (UTC) | temp F | wind direction | speed MPH | gust MPH | rain 1hr in | rain 24hr in | rain mn in | humidity % | barometer mb |
| 20260905012829 | 74 | 123 | 1.0 | 5.0 | 0.00 | 0.64 | 0.38 | 83 | 1013.9 |
| 20260905012320 | 74 | 242 | 0.0 | 4.0 | 0.00 | 0.64 | 0.38 | 84 | 1013.8 |
| 20260905011832 | 74 | 104 | 1.0 | 4.0 | 0.00 | 0.64 | 0.38 | 83 | 1013.9 |
| 20260905011324 | 74 | 149 | 0.0 | 6.0 | 0.00 | 0.64 | 0.38 | 83 | 1013.8 |
| 20260905010816 | 74 | 103 | 1.0 | 6.0 | 0.00 | 0.64 | 0.38 | 83 | 1013.8 |
| 20260905010328 | 74 | 134 | 0.0 | 3.0 | 0.00 | 0.64 | 0.38 | 84 | 1013.9 |
| 20260905005819 | 74 | 139 | 1.0 | 4.0 | 0.00 | 0.64 | 0.38 | 83 | 1013.9 |
| 20260905005331 | 74 | 159 | 1.0 | 4.0 | 0.00 | 0.64 | 0.38 | 84 | 1013.9 |
| 20260905004826 | 74 | 159 | 1.0 | 5.0 | 0.00 | 0.64 | 0.38 | 84 | 1013.9 |
| 20260905004318 | 74 | 196 | 1.0 | 6.0 | 0.00 | 0.64 | 0.38 | 84 | 1013.8 |
| 20260905003830 | 74 | 161 | 1.0 | 4.0 | 0.00 | 0.64 | 0.38 | 84 | 1013.9 |
| 20260905003322 | 74 | 161 | 1.0 | 5.0 | 0.00 | 0.64 | 0.38 | 84 | 1013.9 |
| 20260905002814 | 74 | 170 | 1.0 | 5.0 | 0.00 | 0.64 | 0.38 | 84 | 1013.9 |
| 20260905002325 | 74 | 140 | 0.0 | 3.0 | 0.00 | 0.64 | 0.38 | 84 | 1013.8 |
| 20260905001818 | 74 | 131 | 0.0 | 7.0 | 0.00 | 0.64 | 0.38 | 84 | 1013.8 |
| 20260905001330 | 73 | 150 | 1.0 | 5.0 | 0.00 | 0.64 | 0.38 | 86 | 1013.6 |
| 20260905000825 | 74 | 142 | 1.0 | 6.0 | 0.00 | 0.64 | 0.38 | 87 | 1013.6 |
| 20260905000318 | 74 | 156 | 1.0 | 4.0 | 0.00 | 0.64 | 0.38 | 86 | 1013.7 |
| 20260904235849 | 74 | 148 | 1.0 | 3.0 | 0.00 | 0.64 | 0.38 | 86 | 1013.7 |
| 20260904235320 | 74 | 109 | 0.0 | 3.0 | 0.00 | 0.64 | 0.38 | 85 | 1013.8 |
| 20260904234832 | 74 | 119 | 1.0 | 4.0 | 0.00 | 0.64 | 0.38 | 83 | 1013.7 |
| 20260904234323 | 75 | 115 | 0.0 | 4.0 | 0.00 | 0.64 | 0.38 | 83 | 1013.7 |
| 20260904233815 | 75 | 114 | 1.0 | 3.0 | 0.00 | 0.64 | 0.38 | 82 | 1013.7 |
| 20260904233327 | 75 | 120 | 1.0 | 5.0 | 0.00 | 0.64 | 0.38 | 82 | 1013.8 |
| 20260904232819 | 75 | 147 | 0.0 | 3.0 | 0.00 | 0.64 | 0.38 | 83 | 1013.8 |
| 20260904232315 | 75 | 125 | 0.0 | 5.0 | 0.00 | 0.64 | 0.38 | 83 | 1013.8 |
| 20260904231827 | 75 | 155 | 1.0 | 5.0 | 0.00 | 0.64 | 0.38 | 83 | 1013.8 |
| 20260904231318 | 74 | 168 | 0.0 | 4.0 | 0.00 | 0.64 | 0.38 | 84 | 1013.8 |
| 20260904230831 | 74 | 168 | 0.0 | 5.0 | 0.00 | 0.64 | 0.38 | 85 | 1013.9 |
| 20260904230322 | 74 | 144 | 0.0 | 1.0 | 0.00 | 0.64 | 0.38 | 86 | 1013.9 |
| 20260904225832 | 74 | 142 | 0.0 | 3.0 | 0.00 | 0.64 | 0.38 | 86 | 1014.1 |
| 20260904225324 | 74 | 165 | 0.0 | 3.0 | 0.00 | 0.64 | 0.38 | 87 | 1013.8 |
| 20260904224816 | 75 | 181 | 0.0 | 2.0 | 0.00 | 0.64 | 0.38 | 87 | 1013.9 |
| 20260904224331 | 74 | 136 | 0.0 | 3.0 | 0.00 | 0.64 | 0.38 | 86 | 1014.0 |
| 20260904223823 | 74 | 162 | 0.0 | 6.0 | 0.00 | 0.64 | 0.38 | 87 | 1014.0 |
| 20260904223314 | 74 | 138 | 0.0 | 2.0 | 0.00 | 0.64 | 0.38 | 87 | 1014.2 |
| 20260904222846 | 74 | 155 | 0.0 | 2.0 | 0.00 | 0.64 | 0.38 | 86 | 1014.3 |
| 20260904222317 | 74 | 161 | 0.0 | 5.0 | 0.00 | 0.64 | 0.38 | 86 | 1014.2 |
| 20260904221830 | 74 | 165 | 2.0 | 5.0 | 0.00 | 0.64 | 0.38 | 87 | 1014.5 |
| 20260904221341 | 74 | 171 | 2.0 | 5.0 | 0.00 | 0.64 | 0.38 | 87 | 1014.5 |
| 20260904220832 | 74 | 157 | 2.0 | 4.0 | 0.00 | 0.64 | 0.38 | 88 | 1014.4 |
| 20260904220324 | 74 | 178 | 3.0 | 5.0 | 0.00 | 0.64 | 0.38 | 88 | 1014.3 |
| 20260904215818 | 74 | 169 | 2.0 | 4.0 | 0.00 | 0.64 | 0.38 | 88 | 1014.2 |
| 20260904215350 | 74 | 153 | 2.0 | 5.0 | 0.00 | 0.64 | 0.38 | 89 | 1014.2 |
| 20260904214820 | 74 | 188 | 2.0 | 5.0 | 0.00 | 0.64 | 0.38 | 89 | 1014.2 |
| 20260904214332 | 74 | 170 | 2.0 | 5.0 | 0.00 | 0.64 | 0.38 | 89 | 1014.2 |
| 20260904213824 | 74 | 185 | 2.0 | 7.0 | 0.00 | 0.64 | 0.38 | 89 | 1014.3 |
| 20260904213336 | 74 | 149 | 4.0 | 6.0 | 0.00 | 0.64 | 0.38 | 89 | 1014.2 |
| 20260904212826 | 74 | 172 | 3.0 | 5.0 | 0.00 | 0.64 | 0.38 | 89 | 1014.3 |
| 20260904212319 | 74 | 149 | 2.0 | 4.0 | 0.00 | 0.64 | 0.38 | 88 | 1014.6 |
| 20260904211830 | 74 | 134 | 2.0 | 4.0 | 0.00 | 0.64 | 0.38 | 87 | 1014.9 |
| 20260904211321 | 74 | 142 | 2.0 | 5.0 | 0.00 | 0.64 | 0.38 | 87 | 1014.8 |
| 20260904210817 | 74 | 101 | 2.0 | 6.0 | 0.00 | 0.64 | 0.38 | 87 | 1014.8 |
| 20260904210349 | 74 | 143 | 1.0 | 6.0 | 0.00 | 0.64 | 0.38 | 87 | 1014.8 |
| 20260904205818 | 74 | 142 | 3.0 | 7.0 | 0.00 | 0.64 | 0.38 | 87 | 1015.0 |
| 20260904205331 | 74 | 167 | 2.0 | 7.0 | 0.00 | 0.64 | 0.38 | 88 | 1015.0 |
| 20260904204822 | 74 | 153 | 4.0 | 8.0 | 0.00 | 0.64 | 0.38 | 88 | 1015.1 |
| 20260904203827 | 74 | 175 | 3.0 | 9.0 | 0.00 | 0.64 | 0.38 | 88 | 1015.1 |
| 20260904203317 | 74 | 145 | 1.0 | 5.0 | 0.00 | 0.64 | 0.38 | 89 | 1015.2 |
| 20260904202827 | 74 | 160 | 2.0 | 5.0 | 0.00 | 0.64 | 0.38 | 89 | 1015.2 |
| 20260904202323 | 73 | 170 | 2.0 | 4.0 | 0.00 | 0.64 | 0.38 | 89 | 1015.1 |
| 20260904201814 | 73 | 161 | 2.0 | 5.0 | 0.00 | 0.64 | 0.38 | 89 | 1015.0 |
| 20260904201325 | 73 | 170 | 2.0 | 6.0 | 0.00 | 0.64 | 0.38 | 90 | 1014.8 |
| 20260904200817 | 72 | 156 | 3.0 | 6.0 | 0.01 | 0.64 | 0.38 | 90 | 1014.7 |
| 20260904200327 | 72 | 141 | 2.0 | 5.0 | 0.02 | 0.64 | 0.38 | 91 | 1014.7 |
| 20260904195837 | 72 | 108 | 1.0 | 4.0 | 0.10 | 0.64 | 0.38 | 91 | 1014.6 |
| 20260904195348 | 72 | 107 | 2.0 | 4.0 | 0.15 | 0.64 | 0.38 | 91 | 1014.5 |
| 20260904194815 | 72 | 113 | 1.0 | 4.0 | 0.28 | 0.64 | 0.38 | 92 | 1014.4 |
| 20260904194347 | 71 | 306 | 2.0 | 8.0 | 0.32 | 0.64 | 0.38 | 92 | 1014.4 |
| 20260904193816 | 71 | 270 | 4.0 | 8.0 | 0.32 | 0.64 | 0.38 | 92 | 1014.5 |
| 20260904193332 | 71 | 64 | 2.0 | 4.0 | 0.32 | 0.64 | 0.38 | 92 | 1014.5 |
| 20260904192824 | 71 | 117 | 1.0 | 4.0 | 0.32 | 0.64 | 0.38 | 91 | 1014.4 |
| 20260904192315 | 71 | 141 | 2.0 | 6.0 | 0.32 | 0.64 | 0.38 | 91 | 1014.4 |
| 20260904191846 | 71 | 134 | 2.0 | 6.0 | 0.33 | 0.64 | 0.38 | 92 | 1014.4 |
| 20260904191337 | 71 | 240 | 0.0 | 4.0 | 0.35 | 0.64 | 0.38 | 91 | 1014.3 |
| 20260904190826 | 71 | 178 | 2.0 | 14.0 | 0.34 | 0.63 | 0.37 | 91 | 1014.5 |
| 20260904190318 | 71 | 163 | 5.0 | 14.0 | 0.33 | 0.62 | 0.36 | 89 | 1014.8 |
| 20260904185829 | 72 | 163 | 6.0 | 20.0 | 0.25 | 0.54 | 0.28 | 85 | 1015.6 |
| 20260904185341 | 75 | 180 | 10.0 | 29.0 | 0.20 | 0.49 | 0.23 | 79 | 1015.2 |
| 20260904184832 | 80 | 200 | 13.0 | 29.0 | 0.07 | 0.36 | 0.10 | 79 | 1015.2 |
| 20260904184328 | 82 | 283 | 4.0 | 6.0 | 0.03 | 0.32 | 0.06 | 80 | 1014.9 |
| 20260904183819 | 83 | 293 | 1.0 | 2.0 | 0.03 | 0.32 | 0.06 | 79 | 1014.7 |
| 20260904183331 | 83 | 75 | 0.0 | 4.0 | 0.03 | 0.32 | 0.06 | 77 | 1014.6 |
| 20260904182844 | 84 | 296 | 2.0 | 5.0 | 0.03 | 0.32 | 0.06 | 74 | 1014.5 |
| 20260904182314 | 86 | 109 | 1.0 | 10.0 | 0.03 | 0.32 | 0.06 | 73 | 1014.5 |
| 20260904181826 | 88 | 106 | 2.0 | 10.0 | 0.02 | 0.31 | 0.05 | 69 | 1014.7 |
| 20260904181318 | 88 | 292 | 5.0 | 10.0 | 0.00 | 0.29 | 0.03 | 65 | 1014.8 |
| 20260904180830 | 88 | 287 | 5.0 | 11.0 | 0.00 | 0.29 | 0.03 | 68 | 1014.9 |
| 20260904180342 | 88 | 281 | 6.0 | 11.0 | 0.00 | 0.29 | 0.03 | 67 | 1015.0 |
| 20260904175815 | 88 | 309 | 4.0 | 9.0 | 0.00 | 0.29 | 0.03 | 65 | 1015.0 |
| 20260904175328 | 88 | 302 | 2.0 | 9.0 | 0.00 | 0.29 | 0.03 | 64 | 1015.0 |
| 20260904174818 | 88 | 281 | 4.0 | 9.0 | 0.00 | 0.29 | 0.03 | 65 | 1015.0 |
| 20260904174330 | 88 | 49 | 2.0 | 9.0 | 0.00 | 0.29 | 0.03 | 69 | 1015.0 |
| 20260904173822 | 87 | 20 | 3.0 | 9.0 | 0.00 | 0.29 | 0.03 | 68 | 1015.1 |
| 20260904173334 | 87 | 289 | 4.0 | 10.0 | 0.00 | 0.29 | 0.03 | 67 | 1015.1 |
| 20260904172825 | 87 | 9 | 6.0 | 10.0 | 0.00 | 0.29 | 0.03 | 65 | 1015.3 |
| 20260904172316 | 87 | 311 | 3.0 | 10.0 | 0.00 | 0.29 | 0.03 | 67 | 1015.3 |
| 20260904171827 | 86 | 142 | 2.0 | 10.0 | 0.00 | 0.29 | 0.03 | 67 | 1015.4 |
| 20260904171343 | 86 | 295 | 4.0 | 8.0 | 0.00 | 0.29 | 0.03 | 66 | 1015.4 |
| 20260904170834 | 86 | 302 | 3.0 | 8.0 | 0.00 | 0.29 | 0.03 | 68 | 1015.4 |
| 20260904170326 | 86 | 24 | 1.0 | 11.0 | 0.00 | 0.29 | 0.03 | 67 | 1015.5 |
| 20260904165816 | 86 | 316 | 5.0 | 9.0 | 0.00 | 0.29 | 0.03 | 68 | 1015.5 |
| 20260904165329 | 86 | 297 | 4.0 | 9.0 | 0.00 | 0.29 | 0.03 | 66 | 1015.6 |
| 20260904164820 | 86 | 316 | 2.0 | 8.0 | 0.00 | 0.29 | 0.03 | 70 | 1015.7 |
| 20260904164332 | 86 | 301 | 5.0 | 8.0 | 0.00 | 0.29 | 0.03 | 68 | 1015.8 |
| 20260904163824 | 86 | 76 | 2.0 | 9.0 | 0.00 | 0.29 | 0.03 | 67 | 1015.9 |
| 20260904163316 | 86 | 313 | 4.0 | 9.0 | 0.00 | 0.29 | 0.03 | 67 | 1015.9 |
| 20260904162832 | 85 | 105 | 2.0 | 5.0 | 0.00 | 0.29 | 0.03 | 69 | 1016.0 |
| 20260904162343 | 85 | 297 | 2.0 | 10.0 | 0.00 | 0.29 | 0.03 | 69 | 1016.1 |
| 20260904161815 | 84 | 267 | 4.0 | 10.0 | 0.00 | 0.29 | 0.03 | 68 | 1016.1 |
| 20260904161326 | 84 | 311 | 5.0 | 9.0 | 0.00 | 0.29 | 0.03 | 69 | 1016.1 |
| 20260904160818 | 84 | 278 | 4.0 | 10.0 | 0.00 | 0.29 | 0.03 | 70 | 1016.1 |
| 20260904160330 | 84 | 278 | 6.0 | 11.0 | 0.00 | 0.29 | 0.03 | 69 | 1016.1 |
| 20260904155841 | 84 | 306 | 6.0 | 11.0 | 0.00 | 0.29 | 0.03 | 70 | 1016.1 |
| 20260904155332 | 84 | 313 | 4.0 | 10.0 | 0.00 | 0.29 | 0.03 | 70 | 1016.1 |
| 20260904154823 | 84 | 278 | 3.0 | 7.0 | 0.00 | 0.29 | 0.03 | 68 | 1016.1 |
| 20260904154336 | 84 | 269 | 2.0 | 9.0 | 0.00 | 0.29 | 0.03 | 70 | 1016.1 |
| 20260904153831 | 84 | 316 | 5.0 | 10.0 | 0.00 | 0.29 | 0.03 | 70 | 1016.1 |
| 20260904153323 | 84 | 304 | 5.0 | 10.0 | 0.00 | 0.29 | 0.03 | 68 | 1016.0 |
| 20260904152815 | 83 | 150 | 1.0 | 9.0 | 0.00 | 0.29 | 0.03 | 70 | 1016.0 |
| 20260904152327 | 83 | 9 | 4.0 | 10.0 | 0.00 | 0.29 | 0.03 | 69 | 1016.0 |
| 20260904151818 | 83 | 304 | 2.0 | 8.0 | 0.00 | 0.29 | 0.03 | 69 | 1016.0 |
| 20260904151331 | 83 | 300 | 3.0 | 8.0 | 0.00 | 0.29 | 0.03 | 70 | 1016.0 |
| 20260904150843 | 83 | 88 | 2.0 | 7.0 | 0.00 | 0.29 | 0.03 | 71 | 1016.0 |
| 20260904150314 | 82 | 309 | 3.0 | 7.0 | 0.00 | 0.29 | 0.03 | 68 | 1016.0 |
| 20260904145825 | 82 | 62 | 1.0 | 9.0 | 0.00 | 0.29 | 0.03 | 71 | 1016.0 |
| 20260904145320 | 82 | 287 | 5.0 | 9.0 | 0.00 | 0.29 | 0.03 | 69 | 1016.0 |
| 20260904144833 | 82 | 244 | 4.0 | 9.0 | 0.00 | 0.29 | 0.03 | 69 | 1016.1 |
| 20260904144325 | 81 | 307 | 4.0 | 8.0 | 0.00 | 0.29 | 0.03 | 70 | 1016.1 |
| 20260904143816 | 81 | 304 | 2.0 | 8.0 | 0.00 | 0.29 | 0.03 | 73 | 1016.2 |
| 20260904143328 | 81 | 165 | 1.0 | 5.0 | 0.00 | 0.29 | 0.03 | 74 | 1016.2 |
| 20260904142839 | 80 | 304 | 2.0 | 5.0 | 0.00 | 0.29 | 0.03 | 76 | 1016.3 |
| 20260904142330 | 80 | 234 | 3.0 | 5.0 | 0.00 | 0.29 | 0.03 | 76 | 1016.4 |
| 20260904141822 | 79 | 315 | 2.0 | 7.0 | 0.00 | 0.29 | 0.03 | 75 | 1016.3 |
| 20260904141317 | 79 | 314 | 2.0 | 7.0 | 0.00 | 0.29 | 0.03 | 74 | 1016.3 |
| 20260904140829 | 79 | 301 | 4.0 | 6.0 | 0.00 | 0.29 | 0.03 | 76 | 1016.4 |
| 20260904140341 | 79 | 298 | 3.0 | 8.0 | 0.00 | 0.29 | 0.03 | 77 | 1016.4 |
| 20260904135831 | 79 | 9 | 2.0 | 8.0 | 0.00 | 0.29 | 0.03 | 76 | 1016.3 |
| 20260904135323 | 78 | 281 | 0.0 | 5.0 | 0.00 | 0.29 | 0.03 | 77 | 1016.3 |
| 20260904134813 | 78 | 279 | 2.0 | 5.0 | 0.00 | 0.29 | 0.03 | 76 | 1016.4 |
| 20260904134325 | 78 | 250 | 3.0 | 9.0 | 0.00 | 0.29 | 0.03 | 76 | 1016.3 |
| 20260904133816 | 78 | 296 | 5.0 | 9.0 | 0.00 | 0.29 | 0.03 | 75 | 1016.2 |
| 20260904133346 | 78 | 281 | 2.0 | 5.0 | 0.00 | 0.29 | 0.03 | 77 | 1016.4 |
| 20260904132817 | 78 | 300 | 2.0 | 5.0 | 0.00 | 0.29 | 0.03 | 76 | 1016.4 |
| 20260904132313 | 78 | 19 | 0.0 | 4.0 | 0.00 | 0.29 | 0.03 | 76 | 1016.3 |
| 20260904131825 | 78 | 82 | 0.0 | 5.0 | 0.00 | 0.29 | 0.03 | 78 | 1016.3 |
| 20260904131337 | 77 | 38 | 1.0 | 5.0 | 0.00 | 0.29 | 0.03 | 78 | 1016.3 |
| 20260904130828 | 77 | 304 | 2.0 | 6.0 | 0.00 | 0.29 | 0.03 | 78 | 1016.4 |
| 20260904130319 | 77 | 84 | 1.0 | 6.0 | 0.00 | 0.29 | 0.03 | 80 | 1016.2 |
| 20260904125830 | 76 | 275 | 2.0 | 4.0 | 0.00 | 0.29 | 0.03 | 80 | 1016.3 |
| 20260904125341 | 76 | 140 | 1.0 | 4.0 | 0.00 | 0.29 | 0.03 | 80 | 1016.5 |
| 20260904124832 | 76 | 88 | 2.0 | 4.0 | 0.00 | 0.29 | 0.03 | 80 | 1016.3 |
| 20260904124324 | 75 | 360 | 1.0 | 3.0 | 0.00 | 0.29 | 0.03 | 82 | 1016.2 |
| 20260904123820 | 74 | 92 | 1.0 | 3.0 | 0.00 | 0.29 | 0.03 | 83 | 1016.3 |
| 20260904123332 | 73 | 122 | 0.0 | 6.0 | 0.00 | 0.29 | 0.03 | 84 | 1016.3 |
| 20260904122823 | 73 | 167 | 1.0 | 6.0 | 0.00 | 0.29 | 0.03 | 84 | 1016.4 |
| 20260904122315 | 73 | 150 | 0.0 | 3.0 | 0.00 | 0.29 | 0.03 | 84 | 1016.4 |
| 20260904121847 | 73 | 140 | 0.0 | 3.0 | 0.00 | 0.29 | 0.03 | 85 | 1016.2 |
| 20260904121318 | 73 | 119 | 1.0 | 4.0 | 0.00 | 0.29 | 0.03 | 85 | 1016.2 |
| 20260904120850 | 73 | 92 | 0.0 | 4.0 | 0.00 | 0.29 | 0.03 | 85 | 1016.2 |
| 20260904120321 | 72 | 122 | 0.0 | 3.0 | 0.00 | 0.29 | 0.03 | 85 | 1016.2 |
| 20260904115852 | 72 | 94 | 0.0 | 5.0 | 0.00 | 0.29 | 0.03 | 85 | 1016.2 |
| 20260904115322 | 72 | 168 | 2.0 | 6.0 | 0.00 | 0.29 | 0.03 | 85 | 1016.2 |
| 20260904114818 | 72 | 149 | 1.0 | 3.0 | 0.00 | 0.29 | 0.03 | 85 | 1015.9 |
| 20260904114330 | 72 | 293 | 0.0 | 2.0 | 0.00 | 0.29 | 0.03 | 85 | 1015.6 |
| 20260904113822 | 72 | 119 | 0.0 | 1.0 | 0.00 | 0.29 | 0.03 | 86 | 1015.8 |
| 20260904113314 | 72 | 138 | 0.0 | 1.0 | 0.00 | 0.29 | 0.03 | 86 | 1015.5 |
| 20260904112846 | 72 | 9 | 0.0 | 1.0 | 0.00 | 0.29 | 0.03 | 86 | 1015.6 |
| 20260904112316 | 72 | 107 | 0.0 | 3.0 | 0.00 | 0.29 | 0.03 | 86 | 1015.6 |
| 20260904111849 | 72 | 107 | 1.0 | 3.0 | 0.00 | 0.29 | 0.03 | 87 | 1015.8 |
| 20260904111319 | 72 | 309 | 0.0 | 3.0 | 0.00 | 0.29 | 0.03 | 86 | 1015.6 |
| 20260904110831 | 72 | 62 | 1.0 | 7.0 | 0.00 | 0.29 | 0.03 | 86 | 1015.8 |
| 20260904110323 | 71 | 231 | 2.0 | 7.0 | 0.00 | 0.29 | 0.03 | 86 | 1015.8 |
| 20260904105818 | 71 | 124 | 3.0 | 5.0 | 0.00 | 0.29 | 0.03 | 87 | 1015.6 |
| 20260904105351 | 71 | 252 | 1.0 | 5.0 | 0.00 | 0.29 | 0.03 | 87 | 1015.8 |
| 20260904104822 | 71 | 118 | 1.0 | 4.0 | 0.00 | 0.29 | 0.03 | 87 | 1015.9 |
| 20260904104313 | 71 | 64 | 2.0 | 4.0 | 0.00 | 0.29 | 0.03 | 88 | 1015.8 |
| 20260904103825 | 71 | 96 | 1.0 | 5.0 | 0.00 | 0.29 | 0.03 | 88 | 1015.8 |
| 20260904103317 | 71 | 9 | 0.0 | 5.0 | 0.00 | 0.29 | 0.03 | 88 | 1015.6 |
| 20260904102829 | 71 | 286 | 1.0 | 5.0 | 0.00 | 0.29 | 0.03 | 88 | 1015.6 |
| 20260904102320 | 71 | 23 | 1.0 | 7.0 | 0.00 | 0.29 | 0.03 | 88 | 1015.6 |
| 20260904101817 | 70 | 52 | 2.0 | 7.0 | 0.00 | 0.29 | 0.03 | 88 | 1015.7 |
| 20260904101329 | 70 | 72 | 2.0 | 7.0 | 0.00 | 0.29 | 0.03 | 89 | 1015.6 |
| 20260904100820 | 70 | 105 | 2.0 | 6.0 | 0.00 | 0.29 | 0.03 | 89 | 1015.5 |
| 20260904100332 | 70 | 56 | 2.0 | 7.0 | 0.00 | 0.29 | 0.03 | 90 | 1015.6 |
| 20260904095823 | 69 | 299 | 1.0 | 7.0 | 0.00 | 0.29 | 0.03 | 91 | 1015.5 |
| 20260904095315 | 69 | 300 | 1.0 | 8.0 | 0.00 | 0.29 | 0.03 | 91 | 1015.5 |
| 20260904094847 | 69 | 286 | 2.0 | 8.0 | 0.00 | 0.29 | 0.03 | 91 | 1015.6 |
| 20260904094318 | 69 | 313 | 5.0 | 8.0 | 0.00 | 0.29 | 0.03 | 91 | 1015.6 |
| 20260904093850 | 69 | 309 | 2.0 | 8.0 | 0.00 | 0.29 | 0.03 | 91 | 1015.6 |
| 20260904093341 | 69 | 302 | 4.0 | 8.0 | 0.00 | 0.29 | 0.03 | 91 | 1015.6 |
| 20260904092816 | 69 | 288 | 4.0 | 9.0 | 0.00 | 0.29 | 0.03 | 90 | 1015.5 |
| 20260904092348 | 70 | 294 | 6.0 | 11.0 | 0.00 | 0.29 | 0.03 | 89 | 1015.5 |
| 20260904091819 | 71 | 306 | 6.0 | 16.0 | 0.00 | 0.29 | 0.03 | 87 | 1015.4 |
| 20260904091352 | 73 | 284 | 4.0 | 16.0 | 0.00 | 0.29 | 0.03 | 85 | 1015.2 |
| 20260904090822 | 74 | 138 | 2.0 | 6.0 | 0.00 | 0.29 | 0.03 | 83 | 1014.8 |
| 20260904090314 | 74 | 155 | 5.0 | 7.0 | 0.00 | 0.29 | 0.03 | 84 | 1014.6 |
| 20260904085824 | 74 | 173 | 4.0 | 9.0 | 0.00 | 0.29 | 0.03 | 84 | 1014.6 |
| 20260904085316 | 73 | 171 | 4.0 | 9.0 | 0.00 | 0.29 | 0.03 | 84 | 1014.5 |
| 20260904084828 | 73 | 184 | 4.0 | 8.0 | 0.00 | 0.29 | 0.03 | 84 | 1014.5 |
| 20260904084340 | 73 | 171 | 5.0 | 8.0 | 0.00 | 0.29 | 0.03 | 84 | 1014.4 |
| 20260904083815 | 73 | 180 | 5.0 | 9.0 | 0.00 | 0.29 | 0.03 | 84 | 1014.3 |
| 20260904083327 | 73 | 172 | 5.0 | 9.0 | 0.00 | 0.29 | 0.03 | 84 | 1014.3 |
| 20260904082818 | 73 | 176 | 6.0 | 9.0 | 0.00 | 0.29 | 0.03 | 84 | 1014.4 |
| 20260904082330 | 73 | 167 | 5.0 | 9.0 | 0.00 | 0.29 | 0.03 | 84 | 1014.5 |
| 20260904081822 | 72 | 178 | 5.0 | 8.0 | 0.00 | 0.29 | 0.03 | 84 | 1014.6 |
| 20260904081314 | 72 | 167 | 5.0 | 10.0 | 0.00 | 0.29 | 0.03 | 84 | 1014.6 |
| 20260904080826 | 72 | 168 | 6.0 | 11.0 | 0.00 | 0.29 | 0.03 | 85 | 1014.6 |
| 20260904080337 | 72 | 169 | 6.0 | 12.0 | 0.00 | 0.29 | 0.03 | 85 | 1014.7 |
| 20260904075827 | 72 | 161 | 6.0 | 9.0 | 0.00 | 0.29 | 0.03 | 85 | 1014.8 |
| 20260904075323 | 72 | 165 | 6.0 | 9.0 | 0.00 | 0.29 | 0.03 | 85 | 1014.7 |
| 20260904074835 | 72 | 176 | 6.0 | 11.0 | 0.00 | 0.29 | 0.03 | 85 | 1014.8 |
| 20260904074327 | 72 | 199 | 5.0 | 11.0 | 0.00 | 0.29 | 0.03 | 85 | 1014.9 |
| 20260904073818 | 72 | 169 | 4.0 | 9.0 | 0.00 | 0.29 | 0.03 | 85 | 1014.8 |
| 20260904073330 | 72 | 168 | 5.0 | 9.0 | 0.00 | 0.29 | 0.03 | 85 | 1014.9 |
| 20260904072822 | 72 | 203 | 5.0 | 9.0 | 0.00 | 0.29 | 0.03 | 85 | 1014.8 |
| 20260904072314 | 72 | 178 | 5.0 | 8.0 | 0.00 | 0.29 | 0.03 | 85 | 1014.7 |
| 20260904071825 | 72 | 171 | 6.0 | 10.0 | 0.00 | 0.29 | 0.03 | 85 | 1014.7 |
| 20260904071317 | 71 | 172 | 6.0 | 8.0 | 0.00 | 0.29 | 0.03 | 86 | 1014.5 |
| 20260904070813 | 71 | 175 | 6.0 | 9.0 | 0.00 | 0.29 | 0.03 | 86 | 1014.5 |
| 20260904070325 | 71 | 171 | 6.0 | 7.0 | 0.00 | 0.29 | 0.03 | 86 | 1014.5 |
| 20260904065835 | 71 | 167 | 4.0 | 11.0 | 0.00 | 0.29 | 0.03 | 87 | 1014.5 |
| 20260904065326 | 70 | 175 | 6.0 | 11.0 | 0.00 | 0.29 | 0.03 | 87 | 1014.5 |
| 20260904064817 | 70 | 167 | 6.0 | 9.0 | 0.00 | 0.29 | 0.03 | 88 | 1014.5 |
| 20260904064329 | 70 | 172 | 6.0 | 8.0 | 0.00 | 0.29 | 0.03 | 88 | 1014.5 |
| 20260904063821 | 70 | 189 | 6.0 | 10.0 | 0.00 | 0.29 | 0.03 | 89 | 1014.5 |
| 20260904063353 | 69 | 173 | 7.0 | 10.0 | 0.00 | 0.29 | 0.03 | 89 | 1014.6 |
| 20260904062824 | 69 | 169 | 5.0 | 8.0 | 0.00 | 0.29 | 0.03 | 90 | 1014.5 |
| 20260904062320 | 69 | 163 | 5.0 | 8.0 | 0.00 | 0.29 | 0.03 | 90 | 1014.5 |
| 20260904061832 | 69 | 167 | 4.0 | 7.0 | 0.00 | 0.29 | 0.03 | 90 | 1014.4 |
| 20260904061343 | 69 | 176 | 5.0 | 8.0 | 0.00 | 0.29 | 0.03 | 90 | 1014.5 |
| 20260904060834 | 69 | 167 | 6.0 | 9.0 | 0.00 | 0.29 | 0.03 | 90 | 1014.7 |
| 20260904060325 | 69 | 173 | 5.0 | 9.0 | 0.00 | 0.29 | 0.03 | 90 | 1014.7 |
| 20260904055836 | 69 | 177 | 4.0 | 8.0 | 0.00 | 0.29 | 0.03 | 90 | 1014.7 |
| 20260904055327 | 69 | 173 | 5.0 | 7.0 | 0.00 | 0.29 | 0.03 | 91 | 1014.8 |
| 20260904054839 | 68 | 182 | 4.0 | 8.0 | 0.00 | 0.29 | 0.03 | 91 | 1015.0 |
| 20260904054330 | 68 | 171 | 4.0 | 8.0 | 0.00 | 0.29 | 0.03 | 91 | 1015.0 |
| 20260904053842 | 68 | 174 | 4.0 | 7.0 | 0.00 | 0.29 | 0.03 | 92 | 1015.1 |
| 20260904053332 | 68 | 167 | 3.0 | 11.0 | 0.00 | 0.29 | 0.03 | 92 | 1015.0 |
| 20260904052824 | 68 | 165 | 6.0 | 11.0 | 0.00 | 0.29 | 0.03 | 92 | 1015.1 |
| 20260904052320 | 68 | 165 | 3.0 | 10.0 | 0.00 | 0.29 | 0.03 | 92 | 1015.2 |
| 20260904051832 | 68 | 191 | 5.0 | 10.0 | 0.00 | 0.29 | 0.03 | 92 | 1015.3 |
| 20260904051324 | 68 | 195 | 5.0 | 10.0 | 0.00 | 0.29 | 0.03 | 92 | 1015.5 |
| 20260904050836 | 68 | 163 | 5.0 | 9.0 | 0.00 | 0.29 | 0.03 | 92 | 1015.5 |
| 20260904050326 | 68 | 161 | 4.0 | 9.0 | 0.01 | 0.29 | 0.03 | 92 | 1015.7 |
| 20260904045816 | 68 | 159 | 4.0 | 8.0 | 0.01 | 0.29 | 0.03 | 92 | 1015.9 |
| 20260904045327 | 68 | 167 | 5.0 | 7.0 | 0.02 | 0.29 | 0.03 | 92 | 1016.0 |
| 20260904044819 | 69 | 167 | 5.0 | 10.0 | 0.03 | 0.29 | 0.03 | 92 | 1016.2 |
| 20260904044315 | 68 | 188 | 5.0 | 10.0 | 0.04 | 0.29 | 0.03 | 92 | 1016.4 |
| 20260904043827 | 69 | 163 | 7.0 | 10.0 | 0.04 | 0.29 | 0.03 | 92 | 1016.4 |
| 20260904043319 | 69 | 178 | 7.0 | 11.0 | 0.05 | 0.29 | 0.03 | 92 | 1016.5 |
| 20260904042944 | 68 | 172 | 7.0 | 10.0 | 0.05 | 0.29 | 0.03 | 92 | 1016.3 |
| 20260904042343 | 69 | 183 | 8.0 | 11.0 | 0.11 | 0.29 | 0.03 | 92 | 1016.5 |
| 20260904041814 | 69 | 188 | 7.0 | 12.0 | 0.26 | 0.29 | 0.03 | 92 | 1016.7 |
| 20260904041326 | 69 | 182 | 6.0 | 11.0 | 0.28 | 0.29 | 0.03 | 92 | 1016.9 |
| 20260904040839 | 69 | 164 | 5.0 | 13.0 | 0.28 | 0.29 | 0.03 | 92 | 1017.2 |
| 20260904040330 | 69 | 165 | 7.0 | 13.0 | 0.27 | 0.28 | 0.02 | 92 | 1017.0 |
| 20260904035820 | 69 | 175 | 7.0 | 13.0 | 0.27 | 0.28 | 0.02 | 92 | 1016.9 |
| 20260904035316 | 69 | 178 | 8.0 | 11.0 | 0.26 | 0.27 | 0.01 | 92 | 1016.8 |
| 20260904034827 | 69 | 150 | 7.0 | 11.0 | 0.26 | 0.26 | 0.00 | 92 | 1016.9 |
| 20260904034319 | 69 | 182 | 4.0 | 6.0 | 0.25 | 0.25 | 0.25 | 92 | 1017.2 |
| 20260904033831 | 69 | 150 | 3.0 | 7.0 | 0.25 | 0.25 | 0.25 | 92 | 1017.3 |
| 20260904033323 | 69 | 142 | 4.0 | 8.0 | 0.24 | 0.24 | 0.24 | 92 | 1017.8 |
| 20260904032814 | 69 | 167 | 4.0 | 8.0 | 0.24 | 0.24 | 0.24 | 91 | 1017.4 |
| 20260904032326 | 69 | 172 | 3.0 | 7.0 | 0.18 | 0.18 | 0.18 | 90 | 1018.1 |
| 20260904031818 | 69 | 143 | 3.0 | 9.0 | 0.03 | 0.03 | 0.03 | 90 | 1018.7 |
| 20260904031314 | 69 | 126 | 3.0 | 11.0 | 0.01 | 0.01 | 0.01 | 90 | 1018.4 |
| 20260904030826 | 69 | 311 | 6.0 | 10.0 | 0.01 | 0.01 | 0.01 | 90 | 1018.2 |
| 20260904030338 | 70 | 263 | 3.0 | 11.0 | 0.01 | 0.01 | 0.01 | 89 | 1018.9 |
| 20260904025849 | 70 | 270 | 5.0 | 14.0 | 0.01 | 0.01 | 0.01 | 88 | 1018.9 |
| 20260904025320 | 70 | 15 | 6.0 | 18.0 | 0.01 | 0.01 | 0.01 | 87 | 1019.1 |
| 20260904024832 | 71 | 292 | 10.0 | 18.0 | 0.00 | 0.00 | 0.00 | 85 | 1018.9 |
| 20260904024323 | 72 | 304 | 6.0 | 19.0 | 0.00 | 0.00 | 0.00 | 82 | 1018.3 |
| 20260904023815 | 72 | 19 | 9.0 | 19.0 | 0.00 | 0.00 | 0.00 | 81 | 1018.1 |
| 20260904023327 | 73 | 9 | 11.0 | 22.0 | 0.00 | 0.00 | 0.00 | 78 | 1017.9 |
| 20260904022823 | 75 | 290 | 11.0 | 25.0 | 0.00 | 0.00 | 0.00 | 75 | 1017.9 |
| 20260904022315 | 76 | 300 | 16.0 | 28.0 | 0.00 | 0.00 | 0.00 | 71 | 1017.5 |
| 20260904021826 | 77 | 259 | 19.0 | 28.0 | 0.00 | 0.00 | 0.00 | 70 | 1017.4 |
| 20260904021318 | 77 | 317 | 9.0 | 13.0 | 0.00 | 0.00 | 0.00 | 73 | 1017.4 |
| 20260904020852 | 78 | 302 | 11.0 | 13.0 | 0.00 | 0.00 | 0.00 | 73 | 1017.4 |
| 20260904020322 | 78 | 306 | 8.0 | 12.0 | 0.00 | 0.00 | 0.00 | 73 | 1017.1 |
| 20260904015832 | 79 | 309 | 9.0 | 15.0 | 0.00 | 0.00 | 0.00 | 73 | 1017.0 |
| 20260904015324 | 79 | 275 | 10.0 | 15.0 | 0.00 | 0.00 | 0.00 | 75 | 1016.9 |
| 20260904014815 | 80 | 300 | 7.0 | 11.0 | 0.00 | 0.00 | 0.00 | 77 | 1016.9 |
| 20260904014332 | 81 | 292 | 6.0 | 15.0 | 0.00 | 0.00 | 0.00 | 78 | 1016.7 |
| 20260904013844 | 81 | 300 | 10.0 | 14.0 | 0.00 | 0.00 | 0.00 | 79 | 1016.6 |
| 20260904013315 | 81 | 175 | 0.0 | 3.0 | 0.00 | 0.00 | 0.00 | 79 | 1016.5 |